User: anonymous   Login
Location: Unspecified
(0.0000°N, 0.0000°E)
Time: 20:04:39
(UTC+00:00)
Language:

STARLINK-11685 [DTC] - Orbit

View from above orbital plane
View from above orbital plane
View from above satellite
View from above satellite

Ground track
Ground track

The orbit is defined by the following mean orbital elements,

1 63552U          26144.74697806 +.00000000 +00000-0 +13362-2 0 00005
2 63552  43.0009  55.0689 0003610 281.3604  78.6858 15.70952013    01
Epoch (UTC): 24 May 2026 17:55:38
Eccentricity: 0.0003610
inclination: 43.0009°
perigee height: 354 km
apogee height: 359 km
right ascension of ascending node: 55.0689°
argument of perigee: 281.3604°
revolutions per day: 15.70952013
mean anomaly at epoch: 78.6858°

The dashed part of the orbit path shows where the satellite is in the earth's shadow,  

DLR